Home > Weather > Langesund > Past weeks

Flag for Norway Weather for the Past 2 Weeks in Langesund, Norway

Now
28 °F

Chilly.


Feels Like: 28 °F
Forecast: 16 / 29 °F
Wind: 2 mph from North

Location: Jomfruland Fyr

Current Time: Feb 13, 2016 at 10:21:31 AM

Latest Report: Feb 13, 2016 at 9:00 AM


Visibility: N/A

Pressure: 29.47 "Hg

Humidity: 76%

Dew point: 21 °F

Location of LangesundLocation

Historic Weather in Langesund — Graph

°F

Langesund Temperature Yesterday

Maximum temperature yesterday: 35 °F (at 2:00 PM)
Minimum temperature yesterday: 28 °F (at 8:00 AM)
Average temperature yesterday: 32 °F

High & Low Weather Summary for the Past Weeks

 TemperatureHumidityPressure
High45 °F (Jan 29, 4:00 PM)97% (Feb 5, 11:00 PM)29.95 "Hg (Feb 5, 11:00 PM)
Low28 °F (Feb 13, 4:00 AM)35% (Feb 12, 2:00 PM)28.73 "Hg (Feb 9, 3:00 AM)
Average38 °F76%29.29 "Hg
* Reported Jan 29 9:00 AM — Feb 13 9:00 AM, Langesund, Weather by CustomWeather, © 2016

Note: Actual official high and low records may vary slightly from our data, if they occured in-between our weather recording intervals... More about our weather records

Advertising

Langesund Weather History for the Previous 24 Hours

 ConditionsComfort  
Time TempWeatherWind HumidityBarometerVisibility
9:00 AM
Sat, Feb 13
28 °FChilly.2 mph76%29.47 "HgN/A
8:00 AM28 °FChilly.2 mph76%29.47 "HgN/A
7:00 AM28 °FChilly.3 mph76%29.47 "HgN/A
6:00 AM29 °FChilly.6 mph74%29.47 "HgN/A
5:00 AM28 °FChilly.5 mph77%29.47 "HgN/A
4:00 AM28 °FChilly.3 mph83%29.47 "HgN/A
1:00 AM28 °FChilly.2 mph87%29.50 "HgN/A
10:00 PM
Fri, Feb 12
30 °FChilly.3 mph69%29.50 "HgN/A
9:00 PM31 °FChilly.6 mph63%29.50 "HgN/A
8:00 PM32 °FChilly.5 mph56%29.50 "HgN/A
7:00 PM31 °FChilly.2 mph50%29.50 "HgN/A
6:00 PM31 °FChilly.2 mph49%29.50 "HgN/A
5:00 PM32 °FChilly.3 mph39%29.53 "HgN/A
4:00 PM34 °FChilly.3 mph38%29.54 "HgN/A
3:00 PM35 °FChilly.3 mph35%29.54 "HgN/A
2:00 PM35 °FChilly.6 mph35%29.55 "HgN/A
1:00 PM35 °FChilly.7 mph39%29.56 "HgN/A
12:00 PM34 °FChilly.6 mph41%29.58 "HgN/A
11:00 AM33 °FChilly.6 mph44%29.59 "HgN/A
10:00 AM31 °FChilly.7 mph51%29.60 "HgN/A
Weather by CustomWeather, © 2016

See weather overviewHow to use our weather pages